MARINA

Last updated on Wed Aug 19 2026 00:03:15 GMT+0000 (Coordinated Universal Time)

1 69920U 26156BD 26230.19082544 .00001775 00000+0 18026-3 0 9991 2 69920 97.7481 129.9633 0008199 26.6961 333.4679 14.92066402 6245
UTC large
Height (km)
Speed (km/s)
/
Latitude / Longitude
Inclination (degrees)
Orbital Period (minutes)
Azimuth
Elevation
Range (km)
Doppler Factor

Next 0 passes for location: London (51.5072 / 0.1276)

No passes found over London.
MARINA